Location: Chenereilles
(45.4866°N, 4.0790°E)
Time: 20:35:09
(UTC+00:00)

NOAA 12 - Pass Details

Date: 12 November 2019
Orbit: 795 x 816 km, 98.5° (Epoch: 14 December)

Event Time Altitude Azimuth Distance (km) Brightness Sun altitude
Rises 17:15:35 0° 158° (SSE) 3,326 7.2 -10.5°
Reaches altitude 10° 17:17:55 10° 157° (SSE) 2,400 6.5 -10.9°
Maximum altitude 17:23:12 73° 73° (ENE) 854 4.1 -11.8°
Drops below altitude 10° 17:28:33 10° 350° (N) 2,417 6.6 -12.7°
Sets 17:30:54 0° 348° (NNW) 3,352 7.3 -13.1°
